Flag for Hong Kong Weather past 2 weeks in Hong Kong, Hong Kong

Now
86 °F

Scattered clouds.


Feels Like: 97 °F
Forecast: 79 / 88 °F
Wind: 5 mph from Northeast

Location: National Airport

Current Time: Aug 23, 2014 at 10:46:40 AM

Latest Report: Aug 23, 2014 at 10:00 AM


Visibility: N/A

Pressure: 29.86 "Hg

Humidity: 75%

Dew point: 77 °F

Location of Hong KongLocation

Historic Weather in Hong Kong — Graph

°F

Hong Kong temperature yesterday

Maximum temperature yesterday: 88 °F (at 2:00 PM)
Minimum temperature yesterday: 82 °F (at 1:00 AM)
Average temperature yesterday: 85 °F

Past Weeks' High & Low Weather Summary

 TemperatureHumidityPressure
High93 °F (Aug 9, 1:00 PM)94% (Aug 13, 6:00 AM)29.89 "Hg (Aug 13, 6:00 AM)
Low75 °F (Aug 20, 5:30 AM)53% (Aug 10, 3:00 PM)29.53 "Hg (Aug 12, 2:00 PM)
Average86 °F75%29.73 "Hg
* Reported Aug 8 9:00 AM — Aug 23 9:00 AM, Hong Kong, Weather by CustomWeather, © 2014

Note: Actual official high and low records may vary slightly from our data, if they occured in-between our weather recording intervals... More about our weather records

Advertising

Hong Kong weather history for previous 24 hours

 ConditionsComfort  
Time TempWeatherWind HumidityBarometerVisibility
9:00 AM
Aug 23
88 °FPassing clouds.5 mph75%29.86 "HgN/A
8:30 AM86 °FPassing clouds.5 mph75%29.86 "HgN/A
8:00 AM82 °FPassing clouds.5 mph84%29.83 "HgN/A
7:30 AM82 °FPassing clouds.2 mph84%29.83 "HgN/A
7:00 AM82 °FPassing clouds.2 mph84%29.83 "HgN/A
6:30 AM82 °FPassing clouds.2 mph79%29.83 "HgN/A
6:00 AM82 °FPassing clouds.2 mph79%29.83 "HgN/A
5:30 AM82 °FPassing clouds.3 mph84%29.83 "HgN/A
5:00 AM82 °FPassing clouds.2 mph84%29.80 "HgN/A
4:30 AM84 °FPassing clouds.2 mph74%29.80 "HgN/A
4:00 AM82 °FPassing clouds.5 mph84%29.80 "HgN/A
3:30 AM82 °FPassing clouds.3 mph84%29.80 "HgN/A
3:00 AM82 °FPassing clouds.6 mph84%29.83 "HgN/A
2:30 AM84 °FPassing clouds.2 mph74%29.83 "HgN/A
2:00 AM82 °FPassing clouds.2 mph74%29.83 "HgN/A
1:00 AM84 °FPassing clouds.5 mph79%29.83 "HgN/A
12:30 AM84 °FPassing clouds.9 mph74%29.83 "HgN/A
12:00 AM84 °FPassing clouds.8 mph74%29.86 "HgN/A
11:30 PM
Aug 22
84 °FPassing clouds.6 mph74%29.86 "HgN/A
11:00 PM84 °FPassing clouds.7 mph74%29.86 "HgN/A
10:30 PM84 °FPassing clouds.5 mph74%29.86 "HgN/A
10:00 PM84 °FPassing clouds.6 mph79%29.86 "HgN/A
9:30 PM84 °FPassing clouds.7 mph74%29.86 "HgN/A
9:00 PM86 °FPassing clouds.6 mph70%29.83 "HgN/A
8:30 PM86 °FPassing clouds.8 mph66%29.83 "HgN/A
8:00 PM84 °FPassing clouds.5 mph70%29.80 "HgN/A
7:30 PM84 °FPassing clouds.5 mph70%29.80 "HgN/A
7:00 PM84 °FPassing clouds.6 mph70%29.80 "HgN/A
6:30 PM86 °FPassing clouds.9 mph70%29.80 "HgN/A
6:00 PM88 °FPassing clouds.8 mph66%29.80 "HgN/A
5:30 PM88 °FPassing clouds.12 mph66%29.80 "HgN/A
5:00 PM88 °FPassing clouds.5 mph66%29.77 "HgN/A
4:30 PM88 °FPassing clouds.7 mph66%29.77 "HgN/A
4:00 PM88 °FPassing clouds.8 mph66%29.77 "HgN/A
3:30 PM88 °FPassing clouds.6 mph70%29.80 "HgN/A
3:00 PM88 °FPassing clouds.5 mph70%29.80 "HgN/A
2:30 PM86 °FPassing clouds.5 mph75%29.80 "HgN/A
2:00 PM88 °FPassing clouds.5 mph66%29.80 "HgN/A
1:30 PM86 °FPassing clouds.5 mph75%29.83 "HgN/A
1:00 PM86 °FSprinkles. Scattered clouds.5 mph79%29.83 "HgN/A
12:30 PM86 °FScattered clouds.3 mph70%29.86 "HgN/A
12:00 PM86 °FPassing clouds.5 mph70%29.86 "HgN/A
11:30 AM86 °FPassing clouds.6 mph70%29.86 "HgN/A
11:00 AM86 °FPassing clouds.5 mph70%29.89 "HgN/A
10:30 AM86 °FPassing clouds.5 mph70%29.89 "HgN/A
10:00 AM84 °FPassing clouds.7 mph70%29.89 "HgN/A
Weather by CustomWeather, © 2014

See weather overviewHow to use our weather pages